| time (UTC) | temp F | wind direction | speed MPH | gust MPH | rain 1hr in | rain 24hr in | rain mn in | humidity % | barometer mb |
| 20260904030105 | 69 | 150 | 0.0 | 0.0 | 0.02 | 0.15 | 0.15 | 96 | |
| 20260904025601 | 69 | 150 | 0.0 | 0.0 | 0.00 | 0.15 | 0.15 | 96 | |
| 20260904025056 | 69 | 139 | 0.0 | 1.0 | 0.00 | 0.15 | 0.15 | 96 | |
| 20260904024551 | 69 | 15 | 0.0 | 0.0 | 0.00 | 0.15 | 0.15 | 96 | |
| 20260904024047 | 69 | 15 | 0.0 | 0.0 | 0.00 | 0.15 | 0.15 | 96 | |
| 20260904023543 | 69 | 15 | 1.0 | 2.0 | 0.00 | 0.15 | 0.15 | 96 | |
| 20260904023038 | 69 | 342 | 0.0 | 2.0 | 0.00 | 0.15 | 0.15 | 96 | |
| 20260904022533 | 69 | 6 | 0.0 | 1.0 | 0.00 | 0.15 | 0.15 | 96 | |
| 20260904022030 | 69 | 142 | 0.0 | 0.0 | 0.00 | 0.15 | 0.15 | 96 | |
| 20260904021525 | 70 | 142 | 0.0 | 0.0 | 0.00 | 0.15 | 0.15 | 96 | |
| 20260904021020 | 70 | 130 | 0.0 | 2.0 | 0.00 | 0.15 | 0.15 | 96 | |
| 20260904020520 | 70 | 233 | 0.0 | 0.0 | 0.00 | 0.15 | 0.15 | 96 | |
| 20260904020015 | 70 | 233 | 0.0 | 0.0 | 0.00 | 0.15 | 0.15 | 96 | |
| 20260904015510 | 70 | 230 | 0.0 | 0.0 | 0.00 | 0.15 | 0.15 | 96 | |
| 20260904015009 | 70 | 180 | 0.0 | 1.0 | 0.00 | 0.15 | 0.15 | 96 | |
| 20260904014503 | 70 | 119 | 0.0 | 0.0 | 0.00 | 0.15 | 0.15 | 96 | |
| 20260904013959 | 70 | 119 | 0.0 | 0.0 | 0.00 | 0.15 | 0.15 | 96 | |
| 20260904013455 | 69 | 126 | 0.0 | 1.0 | 0.00 | 0.15 | 0.15 | 96 | |
| 20260904012951 | 69 | 46 | 0.0 | 1.0 | 0.00 | 0.15 | 0.15 | 96 | |
| 20260904012450 | 69 | 13 | 0.0 | 1.0 | 0.00 | 0.15 | 0.15 | 96 | |
| 20260904011945 | 70 | 142 | 0.0 | 0.0 | 0.00 | 0.15 | 0.15 | 96 | |
| 20260904011440 | 70 | 142 | 0.0 | 0.0 | 0.00 | 0.15 | 0.15 | 96 | |
| 20260904010935 | 70 | 142 | 0.0 | 1.0 | 0.00 | 0.15 | 0.15 | 96 | |
| 20260904010431 | 70 | 343 | 0.0 | 0.0 | 0.00 | 0.15 | 0.15 | 96 | |
| 20260904005925 | 70 | 343 | 0.0 | 0.0 | 0.00 | 0.15 | 0.15 | 96 | |
| 20260904005416 | 70 | 13 | 0.0 | 1.0 | 0.00 | 0.15 | 0.15 | 96 | |
| 20260904004915 | 70 | 142 | 0.0 | 0.0 | 0.00 | 0.15 | 0.15 | 96 | |
| 20260904004413 | 70 | 142 | 0.0 | 0.0 | 0.00 | 0.15 | 0.15 | 96 | |
| 20260904003912 | 71 | 140 | 1.0 | 2.0 | 0.00 | 0.15 | 0.15 | 96 | |
| 20260904003403 | 71 | 137 | 0.0 | 1.0 | 0.00 | 0.15 | 0.15 | 96 | |
| 20260904002857 | 70 | 130 | 0.0 | 1.0 | 0.00 | 0.15 | 0.15 | 96 | |
| 20260904002354 | 71 | 121 | 1.0 | 1.0 | 0.00 | 0.15 | 0.15 | 96 | |
| 20260904001853 | 71 | 117 | 0.0 | 1.0 | 0.00 | 0.15 | 0.15 | 96 | |
| 20260904001349 | 71 | 235 | 0.0 | 0.0 | 0.00 | 0.15 | 0.15 | 96 | |
| 20260904000843 | 71 | 235 | 0.0 | 0.0 | 0.00 | 0.15 | 0.15 | 96 | |
| 20260904000343 | 71 | 229 | 0.0 | 2.0 | 0.00 | 0.15 | 0.15 | 96 | |
| 20260903235842 | 72 | 296 | 0.0 | 1.0 | 0.00 | 0.15 | 0.15 | 96 | |
| 20260903235339 | 72 | 322 | 0.0 | 1.0 | 0.00 | 0.15 | 0.15 | 96 | |
| 20260903234838 | 72 | 142 | 0.0 | 0.0 | 0.00 | 0.15 | 0.15 | 96 | |
| 20260903234334 | 72 | 142 | 0.0 | 0.0 | 0.00 | 0.15 | 0.15 | 96 | |
| 20260903233831 | 73 | 142 | 0.0 | 0.0 | 0.00 | 0.15 | 0.15 | 96 | |
| 20260903233326 | 73 | 142 | 0.0 | 1.0 | 0.00 | 0.15 | 0.15 | 96 | |
| 20260903232825 | 73 | 129 | 0.0 | 0.0 | 0.00 | 0.15 | 0.15 | 95 | |
| 20260903232321 | 73 | 129 | 0.0 | 0.0 | 0.00 | 0.15 | 0.15 | 94 | |
| 20260903231820 | 74 | 142 | 0.0 | 0.0 | 0.00 | 0.15 | 0.15 | 94 | |
| 20260903231316 | 74 | 142 | 0.0 | 1.0 | 0.00 | 0.15 | 0.15 | 93 | |
| 20260903230811 | 74 | 148 | 1.0 | 2.0 | 0.00 | 0.15 | 0.15 | 93 | |
| 20260903230306 | 75 | 154 | 0.0 | 0.0 | 0.00 | 0.15 | 0.15 | 93 | |
| 20260903225802 | 75 | 217 | 0.0 | 0.0 | 0.00 | 0.15 | 0.15 | 92 | |
| 20260903225258 | 76 | 217 | 0.0 | 0.0 | 0.00 | 0.15 | 0.15 | 92 | |
| 20260903224754 | 76 | 217 | 0.0 | 0.0 | 0.00 | 0.15 | 0.15 | 90 | |
| 20260903224250 | 77 | 217 | 0.0 | 0.0 | 0.00 | 0.15 | 0.15 | 89 | |
| 20260903223745 | 77 | 217 | 0.0 | 1.0 | 0.00 | 0.15 | 0.15 | 89 | |
| 20260903223243 | 77 | 242 | 0.0 | 1.0 | 0.00 | 0.15 | 0.15 | 89 | |
| 20260903222739 | 77 | 339 | 0.0 | 1.0 | 0.00 | 0.15 | 0.15 | 88 | |
| 20260903222238 | 78 | 154 | 0.0 | 2.0 | 0.00 | 0.15 | 0.15 | 86 | |
| 20260903221733 | 78 | 228 | 0.0 | 0.0 | 0.00 | 0.15 | 0.15 | 85 | |
| 20260903221232 | 78 | 228 | 0.0 | 0.0 | 0.00 | 0.15 | 0.15 | 86 | |
| 20260903220730 | 79 | 228 | 0.0 | 0.0 | 0.00 | 0.15 | 0.15 | 83 | |
| 20260903220225 | 79 | 228 | 0.0 | 0.0 | 0.00 | 0.15 | 0.15 | 82 | |
| 20260903215724 | 80 | 244 | 2.0 | 2.0 | 0.00 | 0.15 | 0.15 | 79 | |
| 20260903215220 | 80 | 229 | 0.0 | 1.0 | 0.00 | 0.15 | 0.15 | 81 | |
| 20260903214718 | 80 | 209 | 0.0 | 0.0 | 0.00 | 0.15 | 0.15 | 80 | |
| 20260903214214 | 81 | 288 | 0.0 | 1.0 | 0.00 | 0.15 | 0.15 | 78 | |
| 20260903213708 | 79 | 293 | 0.0 | 3.0 | 0.00 | 0.15 | 0.15 | 78 | |
| 20260903213204 | 79 | 263 | 3.0 | 6.0 | 0.00 | 0.15 | 0.15 | 77 | |
| 20260903212700 | 79 | 282 | 1.0 | 4.0 | 0.00 | 0.15 | 0.15 | 78 | |
| 20260903212156 | 79 | 310 | 1.0 | 7.0 | 0.00 | 0.15 | 0.15 | 79 | |
| 20260903211649 | 80 | 256 | 2.0 | 8.0 | 0.00 | 0.15 | 0.15 | 75 | |
| 20260903211146 | 81 | 252 | 6.0 | 7.0 | 0.00 | 0.15 | 0.15 | 74 | |
| 20260903210642 | 81 | 250 | 3.0 | 5.0 | 0.00 | 0.15 | 0.15 | 74 | |
| 20260903210137 | 81 | 271 | 2.0 | 4.0 | 0.00 | 0.15 | 0.15 | 75 | |
| 20260903205631 | 81 | 242 | 3.0 | 7.0 | 0.00 | 0.15 | 0.15 | 72 | |
| 20260903205130 | 81 | 103 | 0.0 | 3.0 | 0.00 | 0.15 | 0.15 | 76 | |
| 20260903204626 | 80 | 256 | 3.0 | 3.0 | 0.00 | 0.15 | 0.15 | 80 | |
| 20260903204122 | 80 | 309 | 0.0 | 1.0 | 0.00 | 0.15 | 0.15 | 77 | |
| 20260903203618 | 79 | 230 | 0.0 | 2.0 | 0.00 | 0.15 | 0.15 | 80 | |
| 20260903203112 | 78 | 258 | 3.0 | 3.0 | 0.00 | 0.15 | 0.15 | 79 | |
| 20260903202607 | 78 | 242 | 0.0 | 1.0 | 0.00 | 0.15 | 0.15 | 80 | |
| 20260903202102 | 78 | 330 | 1.0 | 5.0 | 0.00 | 0.15 | 0.15 | 80 | |
| 20260903201551 | 78 | 238 | 3.0 | 7.0 | 0.00 | 0.15 | 0.15 | 78 | |
| 20260903201050 | 78 | 288 | 0.0 | 3.0 | 0.00 | 0.15 | 0.15 | 81 | |
| 20260903200546 | 78 | 247 | 4.0 | 8.0 | 0.00 | 0.15 | 0.15 | 79 | |
| 20260903200041 | 78 | 239 | 6.0 | 8.0 | 0.00 | 0.15 | 0.15 | 79 | |
| 20260903195537 | 78 | 263 | 3.0 | 5.0 | 0.00 | 0.15 | 0.15 | 80 | 1014.2 |
| 20260903195032 | 78 | 291 | 1.0 | 4.0 | 0.00 | 0.15 | 0.15 | 79 | 1014.2 |
| 20260903194527 | 78 | 267 | 2.0 | 5.0 | 0.00 | 0.15 | 0.15 | 79 | 1014.2 |
| 20260903194022 | 79 | 326 | 0.0 | 6.0 | 0.00 | 0.15 | 0.15 | 78 | 1014.2 |
| 20260903193519 | 79 | 243 | 3.0 | 4.0 | 0.00 | 0.15 | 0.15 | 78 | 1014.2 |
| 20260903193014 | 79 | 248 | 0.0 | 4.0 | 0.00 | 0.15 | 0.15 | 78 | 1014.2 |
| 20260903192511 | 79 | 264 | 2.0 | 3.0 | 0.00 | 0.15 | 0.15 | 80 | 1014.2 |
| 20260903192010 | 79 | 250 | 4.0 | 5.0 | 0.00 | 0.15 | 0.15 | 78 | 1014.2 |
| 20260903191507 | 80 | 225 | 3.0 | 6.0 | 0.00 | 0.15 | 0.15 | 77 | 1014.2 |
| 20260903191001 | 79 | 235 | 2.0 | 3.0 | 0.00 | 0.15 | 0.15 | 81 | 1014.2 |
| 20260903190500 | 78 | 245 | 3.0 | 4.0 | 0.00 | 0.15 | 0.15 | 78 | 1014.2 |
| 20260903185954 | 78 | 238 | 4.0 | 7.0 | 0.00 | 0.15 | 0.15 | 79 | 1014.2 |
| 20260903185451 | 77 | 247 | 3.0 | 6.0 | 0.00 | 0.15 | 0.15 | 81 | 1014.6 |
| 20260903184950 | 78 | 255 | 8.0 | 8.0 | 0.00 | 0.15 | 0.15 | 80 | 1014.6 |
| 20260903184447 | 78 | 101 | 0.0 | 4.0 | 0.00 | 0.15 | 0.15 | 80 | 1014.6 |
| 20260903183942 | 78 | 239 | 2.0 | 7.0 | 0.00 | 0.15 | 0.15 | 79 | 1014.6 |
| 20260903183436 | 78 | 241 | 4.0 | 6.0 | 0.00 | 0.15 | 0.15 | 78 | 1014.6 |
| 20260903182936 | 79 | 144 | 2.0 | 9.0 | 0.00 | 0.15 | 0.15 | 77 | 1014.6 |
| 20260903182434 | 81 | 223 | 3.0 | 5.0 | 0.00 | 0.15 | 0.15 | 75 | 1014.6 |
| 20260903181930 | 79 | 250 | 2.0 | 6.0 | 0.00 | 0.15 | 0.15 | 78 | 1014.6 |
| 20260903181425 | 79 | 240 | 0.0 | 4.0 | 0.00 | 0.15 | 0.15 | 76 | 1014.6 |
| 20260903180924 | 78 | 207 | 1.0 | 3.0 | 0.00 | 0.15 | 0.15 | 80 | 1014.6 |
| 20260903180419 | 77 | 248 | 2.0 | 5.0 | 0.00 | 0.15 | 0.15 | 81 | 1014.4 |
| 20260903175919 | 77 | 280 | 1.0 | 5.0 | 0.00 | 0.15 | 0.15 | 83 | 1014.4 |
| 20260903175413 | 77 | 256 | 4.0 | 7.0 | 0.00 | 0.15 | 0.15 | 81 | 1014.4 |
| 20260903174907 | 77 | 308 | 2.0 | 7.0 | 0.00 | 0.15 | 0.15 | 80 | 1014.4 |
| 20260903174402 | 77 | 255 | 3.0 | 4.0 | 0.00 | 0.15 | 0.15 | 80 | 1014.3 |
| 20260903173857 | 77 | 251 | 4.0 | 7.0 | 0.00 | 0.15 | 0.15 | 80 | 1014.6 |
| 20260903173352 | 77 | 278 | 1.0 | 4.0 | 0.00 | 0.15 | 0.15 | 80 | 1014.1 |
| 20260903172848 | 76 | 257 | 3.0 | 4.0 | 0.00 | 0.15 | 0.15 | 82 | 1014.6 |
| 20260903172348 | 76 | 246 | 1.0 | 3.0 | 0.00 | 0.15 | 0.15 | 82 | 1014.4 |
| 20260903171843 | 76 | 242 | 3.0 | 6.0 | 0.00 | 0.15 | 0.15 | 81 | 1014.6 |
| 20260903171338 | 76 | 245 | 7.0 | 9.0 | 0.00 | 0.15 | 0.15 | 80 | 1014.4 |
| 20260903170838 | 77 | 216 | 3.0 | 4.0 | 0.00 | 0.15 | 0.15 | 81 | 1014.4 |
| 20260903170333 | 77 | 245 | 4.0 | 5.0 | 0.00 | 0.15 | 0.15 | 80 | 1014.4 |
| 20260903165831 | 77 | 249 | 2.0 | 5.0 | 0.00 | 0.15 | 0.15 | 82 | 1014.6 |
| 20260903165331 | 78 | 256 | 8.0 | 9.0 | 0.00 | 0.15 | 0.15 | 78 | 1014.6 |
| 20260903164826 | 78 | 238 | 2.0 | 6.0 | 0.00 | 0.15 | 0.15 | 79 | 1014.6 |
| 20260903164321 | 78 | 294 | 1.0 | 5.0 | 0.00 | 0.15 | 0.15 | 80 | 1014.6 |
| 20260903163820 | 77 | 292 | 3.0 | 5.0 | 0.00 | 0.15 | 0.15 | 82 | 1014.7 |
| 20260903163317 | 77 | 284 | 0.0 | 3.0 | 0.00 | 0.15 | 0.15 | 85 | 1014.3 |
| 20260903162813 | 77 | 239 | 3.0 | 8.0 | 0.00 | 0.15 | 0.15 | 82 | 1014.9 |
| 20260903162309 | 76 | 202 | 0.0 | 6.0 | 0.00 | 0.15 | 0.15 | 84 | 1014.7 |
| 20260903161804 | 76 | 269 | 1.0 | 7.0 | 0.00 | 0.15 | 0.15 | 85 | 1014.8 |
| 20260903161300 | 75 | 175 | 3.0 | 9.0 | 0.00 | 0.15 | 0.15 | 85 | 1015.0 |
| 20260903160755 | 75 | 243 | 4.0 | 6.0 | 0.00 | 0.15 | 0.15 | 84 | 1014.8 |
| 20260903160254 | 75 | 233 | 5.0 | 7.0 | 0.00 | 0.15 | 0.15 | 86 | 1015.1 |
| 20260903155753 | 74 | 242 | 4.0 | 10.0 | 0.00 | 0.15 | 0.15 | 86 | 1015.2 |
| 20260903155248 | 75 | 259 | 3.0 | 6.0 | 0.00 | 0.15 | 0.15 | 87 | 1015.2 |
| 20260903154744 | 73 | 201 | 1.0 | 7.0 | 0.00 | 0.15 | 0.15 | 88 | 1015.3 |
| 20260903154239 | 72 | 203 | 1.0 | 6.0 | 0.00 | 0.15 | 0.15 | 90 | 1015.5 |
| 20260903153735 | 72 | 269 | 0.0 | 4.0 | 0.00 | 0.15 | 0.15 | 91 | 1015.4 |
| 20260903153231 | 71 | 257 | 1.0 | 3.0 | 0.00 | 0.15 | 0.15 | 92 | 1015.6 |
| 20260903152727 | 71 | 236 | 2.0 | 3.0 | 0.00 | 0.15 | 0.15 | 92 | 1015.5 |
| 20260903152223 | 71 | 202 | 1.0 | 3.0 | 0.00 | 0.15 | 0.15 | 92 | 1015.7 |
| 20260903151722 | 70 | 207 | 3.0 | 4.0 | 0.00 | 0.15 | 0.15 | 93 | 1015.6 |
| 20260903151218 | 70 | 215 | 2.0 | 3.0 | 0.00 | 0.15 | 0.15 | 93 | 1015.6 |
| 20260903150713 | 70 | 235 | 3.0 | 5.0 | 0.00 | 0.15 | 0.15 | 92 | 1015.4 |
| 20260903150207 | 70 | 165 | 3.0 | 6.0 | 0.00 | 0.15 | 0.15 | 92 | 1015.5 |
| 20260903145702 | 70 | 253 | 2.0 | 7.0 | 0.00 | 0.15 | 0.15 | 92 | 1015.4 |
| 20260903145157 | 71 | 143 | 4.0 | 7.0 | 0.00 | 0.15 | 0.15 | 92 | 1015.4 |
| 20260903144656 | 70 | 244 | 2.0 | 9.0 | 0.00 | 0.15 | 0.15 | 93 | 1015.2 |
| 20260903144152 | 70 | 247 | 5.0 | 8.0 | 0.00 | 0.15 | 0.15 | 92 | 1015.2 |
| 20260903143648 | 70 | 203 | 2.0 | 4.0 | 0.00 | 0.15 | 0.15 | 94 | 1015.3 |
| 20260903143143 | 69 | 247 | 6.0 | 7.0 | 0.00 | 0.15 | 0.15 | 95 | 1015.4 |
| 20260903142638 | 69 | 125 | 3.0 | 8.0 | 0.00 | 0.15 | 0.15 | 96 | 1015.4 |
| 20260903142135 | 68 | 225 | 3.0 | 6.0 | 0.00 | 0.15 | 0.15 | 96 | 1015.4 |
| 20260903141630 | 68 | 213 | 2.0 | 6.0 | 0.00 | 0.15 | 0.15 | 96 | 1015.3 |
| 20260903141125 | 68 | 162 | 2.0 | 5.0 | 0.00 | 0.15 | 0.15 | 96 | 1015.3 |
| 20260903140622 | 68 | 140 | 2.0 | 5.0 | 0.00 | 0.15 | 0.15 | 96 | 1015.4 |
| 20260903140117 | 68 | 149 | 2.0 | 4.0 | 0.00 | 0.15 | 0.15 | 96 | 1015.4 |
| 20260903135613 | 68 | 212 | 0.0 | 5.0 | 0.00 | 0.15 | 0.15 | 96 | 1015.3 |
| 20260903135112 | 68 | 245 | 2.0 | 3.0 | 0.00 | 0.15 | 0.15 | 96 | 1015.2 |
| 20260903134611 | 68 | 186 | 1.0 | 6.0 | 0.00 | 0.15 | 0.15 | 96 | 1015.3 |
| 20260903134107 | 68 | 226 | 3.0 | 5.0 | 0.00 | 0.15 | 0.15 | 96 | 1015.1 |
| 20260903133605 | 68 | 222 | 3.0 | 7.0 | 0.00 | 0.15 | 0.15 | 96 | 1015.0 |
| 20260903133101 | 68 | 260 | 3.0 | 5.0 | 0.00 | 0.15 | 0.15 | 96 | 1015.0 |
| 20260903132556 | 68 | 254 | 2.0 | 6.0 | 0.00 | 0.15 | 0.15 | 96 | 1014.9 |
| 20260903132050 | 68 | 246 | 4.0 | 6.0 | 0.00 | 0.15 | 0.15 | 96 | 1014.9 |
| 20260903131549 | 68 | 245 | 5.0 | 6.0 | 0.00 | 0.15 | 0.15 | 96 | 1015.2 |
| 20260903131044 | 68 | 226 | 3.0 | 5.0 | 0.00 | 0.15 | 0.15 | 96 | 1015.2 |
| 20260903130544 | 68 | 225 | 2.0 | 6.0 | 0.00 | 0.15 | 0.15 | 96 | 1015.3 |
| 20260903130039 | 68 | 252 | 4.0 | 6.0 | 0.00 | 0.15 | 0.15 | 96 | 1015.3 |
| 20260903125537 | 67 | 145 | 3.0 | 4.0 | 0.00 | 0.15 | 0.15 | 96 | 1015.3 |
| 20260903125033 | 67 | 253 | 2.0 | 3.0 | 0.00 | 0.15 | 0.15 | 96 | 1015.3 |
| 20260903124532 | 67 | 253 | 3.0 | 6.0 | 0.00 | 0.15 | 0.15 | 96 | 1015.3 |
| 20260903124027 | 67 | 253 | 3.0 | 4.0 | 0.00 | 0.15 | 0.15 | 96 | 1015.4 |
| 20260903123521 | 67 | 217 | 2.0 | 4.0 | 0.00 | 0.15 | 0.15 | 96 | 1015.4 |
| 20260903123020 | 67 | 174 | 1.0 | 3.0 | 0.00 | 0.15 | 0.15 | 96 | 1015.3 |
| 20260903122520 | 67 | 259 | 2.0 | 3.0 | 0.00 | 0.15 | 0.15 | 96 | 1015.3 |
| 20260903122019 | 66 | 217 | 0.0 | 3.0 | 0.00 | 0.15 | 0.15 | 96 | 1015.1 |
| 20260903121514 | 66 | 226 | 1.0 | 2.0 | 0.00 | 0.15 | 0.15 | 96 | 1015.1 |
| 20260903121010 | 66 | 215 | 0.0 | 3.0 | 0.00 | 0.15 | 0.15 | 96 | 1015.0 |
| 20260903120508 | 66 | 224 | 0.0 | 2.0 | 0.00 | 0.15 | 0.15 | 96 | 1014.9 |
| 20260903120003 | 66 | 240 | 0.0 | 2.0 | 0.00 | 0.15 | 0.15 | 96 | 1015.0 |
| 20260903115501 | 66 | 180 | 0.0 | 2.0 | 0.00 | 0.15 | 0.15 | 96 | 1015.0 |
| 20260903114956 | 65 | 89 | 0.0 | 2.0 | 0.00 | 0.15 | 0.15 | 96 | 1014.9 |
| 20260903114451 | 65 | 338 | 0.0 | 2.0 | 0.00 | 0.15 | 0.15 | 96 | 1014.9 |
| 20260903113947 | 64 | 141 | 0.0 | 1.0 | 0.00 | 0.15 | 0.15 | 96 | 1014.9 |
| 20260903113442 | 64 | 246 | 0.0 | 2.0 | 0.02 | 0.15 | 0.15 | 96 | 1014.9 |
| 20260903112938 | 64 | 236 | 0.0 | 2.0 | 0.02 | 0.15 | 0.15 | 96 | 1014.9 |
| 20260903112433 | 64 | 245 | 0.0 | 3.0 | 0.02 | 0.15 | 0.15 | 96 | 1014.7 |
| 20260903111932 | 64 | 240 | 0.0 | 2.0 | 0.00 | 0.15 | 0.15 | 96 | 1014.4 |
| 20260903111427 | 64 | 219 | 0.0 | 2.0 | 0.00 | 0.15 | 0.15 | 96 | 1014.6 |
| 20260903110924 | 64 | 206 | 0.0 | 2.0 | 0.00 | 0.15 | 0.15 | 96 | 1014.7 |
| 20260903110419 | 64 | 151 | 0.0 | 1.0 | 0.00 | 0.15 | 0.15 | 96 | 1014.6 |
| 20260903105914 | 64 | 177 | 0.0 | 1.0 | 0.00 | 0.15 | 0.15 | 96 | 1014.2 |
| 20260903105409 | 64 | 260 | 0.0 | 0.0 | 0.00 | 0.15 | 0.15 | 96 | 1014.4 |
| 20260903104908 | 64 | 233 | 0.0 | 1.0 | 0.00 | 0.15 | 0.15 | 96 | 1014.4 |
| 20260903104403 | 64 | 222 | 0.0 | 2.0 | 0.00 | 0.15 | 0.15 | 96 | 1014.8 |
| 20260903103900 | 64 | 209 | 2.0 | 3.0 | 0.00 | 0.15 | 0.15 | 96 | 1014.6 |
| 20260903103355 | 64 | 225 | 0.0 | 2.0 | 0.00 | 0.15 | 0.15 | 96 | 1014.6 |
| 20260903102850 | 64 | 129 | 0.0 | 1.0 | 0.00 | 0.15 | 0.15 | 96 | 1014.7 |
| 20260903102345 | 64 | 212 | 0.0 | 1.0 | 0.00 | 0.15 | 0.15 | 96 | 1014.6 |
| 20260903101844 | 64 | 316 | 0.0 | 1.0 | 0.00 | 0.15 | 0.15 | 96 | 1014.7 |
| 20260903101334 | 64 | 50 | 0.0 | 1.0 | 0.00 | 0.15 | 0.15 | 96 | 1014.6 |
| 20260903100830 | 64 | 89 | 0.0 | 1.0 | 0.00 | 0.15 | 0.15 | 96 | 1014.6 |
| 20260903100330 | 64 | 240 | 0.0 | 1.0 | 0.00 | 0.15 | 0.15 | 96 | 1014.9 |
| 20260903095826 | 64 | 159 | 0.0 | 2.0 | 0.00 | 0.15 | 0.15 | 96 | 1014.8 |
| 20260903095321 | 64 | 265 | 0.0 | 1.0 | 0.00 | 0.15 | 0.15 | 96 | 1014.9 |
| 20260903094816 | 64 | 230 | 0.0 | 2.0 | 0.00 | 0.15 | 0.15 | 96 | 1014.8 |
| 20260903094311 | 64 | 226 | 0.0 | 2.0 | 0.00 | 0.15 | 0.15 | 96 | 1014.7 |
| 20260903093807 | 64 | 233 | 1.0 | 2.0 | 0.00 | 0.15 | 0.15 | 96 | 1014.9 |
| 20260903093301 | 64 | 130 | 1.0 | 3.0 | 0.00 | 0.15 | 0.15 | 96 | 1014.8 |
| 20260903092756 | 64 | 166 | 0.0 | 3.0 | 0.00 | 0.15 | 0.15 | 96 | 1014.7 |
| 20260903092251 | 64 | 267 | 1.0 | 2.0 | 0.00 | 0.15 | 0.15 | 96 | 1014.9 |
| 20260903091750 | 64 | 269 | 0.0 | 2.0 | 0.00 | 0.15 | 0.15 | 96 | 1015.1 |
| 20260903091244 | 64 | 203 | 1.0 | 2.0 | 0.02 | 0.15 | 0.15 | 96 | 1015.1 |
| 20260903090740 | 64 | 235 | 0.0 | 1.0 | 0.02 | 0.15 | 0.15 | 96 | 1015.0 |
| 20260903090239 | 64 | 325 | 0.0 | 2.0 | 0.00 | 0.14 | 0.14 | 96 | 1015.0 |
| 20260903085737 | 64 | 335 | 0.0 | 2.0 | 0.00 | 0.14 | 0.14 | 96 | 1014.9 |
| 20260903085233 | 64 | 117 | 1.0 | 4.0 | 0.00 | 0.14 | 0.14 | 96 | 1014.8 |
| 20260903084730 | 64 | 237 | 0.0 | 2.0 | 0.00 | 0.14 | 0.14 | 96 | 1014.6 |
| 20260903084226 | 64 | 202 | 0.0 | 1.0 | 0.00 | 0.14 | 0.14 | 96 | 1014.6 |
| 20260903083721 | 64 | 186 | 0.0 | 1.0 | 0.00 | 0.14 | 0.14 | 96 | 1014.4 |
| 20260903083221 | 64 | 322 | 0.0 | 1.0 | 0.00 | 0.14 | 0.14 | 96 | 1014.3 |
| 20260903082714 | 64 | 150 | 0.0 | 2.0 | 0.00 | 0.14 | 0.14 | 96 | 1014.8 |
| 20260903082211 | 64 | 142 | 0.0 | 1.0 | 0.00 | 0.14 | 0.14 | 96 | 1014.7 |
| 20260903081710 | 64 | 129 | 0.0 | 1.0 | 0.00 | 0.14 | 0.14 | 96 | 1014.6 |
| 20260903081206 | 64 | 315 | 0.0 | 2.0 | 0.00 | 0.14 | 0.14 | 96 | 1014.8 |
| 20260903080703 | 64 | 214 | 0.0 | 3.0 | 0.00 | 0.14 | 0.14 | 96 | 1015.0 |
| 20260903080200 | 64 | 227 | 1.0 | 2.0 | 0.05 | 0.14 | 0.14 | 96 | 1014.6 |
| 20260903075659 | 64 | 217 | 0.0 | 1.0 | 0.05 | 0.14 | 0.14 | 96 | 1014.6 |
| 20260903075154 | 64 | 142 | 0.0 | 1.0 | 0.00 | 0.13 | 0.13 | 96 | 1014.7 |
| 20260903074653 | 64 | 326 | 0.0 | 1.0 | 0.00 | 0.13 | 0.13 | 96 | 1014.9 |
| 20260903074149 | 64 | 230 | 0.0 | 1.0 | 0.00 | 0.13 | 0.13 | 96 | 1014.7 |
| 20260903073644 | 64 | 194 | 0.0 | 1.0 | 0.00 | 0.13 | 0.13 | 96 | 1014.8 |
| 20260903073139 | 64 | 193 | 0.0 | 1.0 | 0.00 | 0.13 | 0.13 | 96 | 1015.2 |
| 20260903072634 | 64 | 321 | 1.0 | 1.0 | 0.00 | 0.13 | 0.13 | 96 | 1015.0 |
| 20260903072131 | 64 | 230 | 0.0 | 0.0 | 0.00 | 0.13 | 0.13 | 96 | 1014.7 |
| 20260903071627 | 64 | 186 | 0.0 | 1.0 | 0.00 | 0.13 | 0.13 | 96 | 1014.6 |
| 20260903071123 | 64 | 246 | 2.0 | 2.0 | 0.00 | 0.13 | 0.13 | 96 | 1014.9 |
| 20260903070622 | 64 | 329 | 0.0 | 1.0 | 0.00 | 0.13 | 0.13 | 96 | 1014.9 |
| 20260903070118 | 64 | 343 | 0.0 | 2.0 | 0.00 | 0.13 | 0.13 | 96 | 1014.8 |
| 20260903065618 | 64 | 37 | 0.0 | 2.0 | 0.00 | 0.13 | 0.13 | 96 | 1014.9 |
| 20260903065118 | 64 | 209 | 0.0 | 4.0 | 0.00 | 0.13 | 0.13 | 96 | 1015.1 |
| 20260903064612 | 64 | 154 | 3.0 | 4.0 | 0.00 | 0.13 | 0.13 | 96 | 1015.2 |
| 20260903064107 | 64 | 160 | 1.0 | 6.0 | 0.00 | 0.13 | 0.13 | 96 | 1014.4 |
| 20260903063603 | 64 | 219 | 1.0 | 2.0 | 0.00 | 0.13 | 0.13 | 96 | 1014.9 |
| 20260903063058 | 64 | 219 | 1.0 | 2.0 | 0.00 | 0.13 | 0.13 | 96 | 1014.9 |
| 20260903062553 | 64 | 315 | 0.0 | 0.0 | 0.00 | 0.13 | 0.13 | 96 | 1015.3 |
| 20260903062049 | 64 | 315 | 0.0 | 2.0 | 0.00 | 0.13 | 0.13 | 96 | 1015.2 |
| 20260903061543 | 64 | 148 | 0.0 | 2.0 | 0.00 | 0.13 | 0.13 | 96 | 1015.2 |
| 20260903061038 | 64 | 212 | 0.0 | 1.0 | 0.00 | 0.13 | 0.13 | 96 | 1015.2 |
| 20260903060537 | 64 | 230 | 0.0 | 1.0 | 0.00 | 0.13 | 0.13 | 96 | 1015.6 |
| 20260903060033 | 64 | 230 | 0.0 | 0.0 | 0.00 | 0.13 | 0.13 | 96 | 1015.7 |
| 20260903055530 | 64 | 212 | 0.0 | 1.0 | 0.00 | 0.13 | 0.13 | 96 | 1015.8 |
| 20260903055029 | 64 | 309 | 0.0 | 0.0 | 0.00 | 0.13 | 0.13 | 96 | 1015.5 |
| 20260903054524 | 64 | 17 | 0.0 | 1.0 | 0.00 | 0.13 | 0.13 | 96 | 1015.5 |
| 20260903054020 | 64 | 292 | 1.0 | 5.0 | 0.00 | 0.13 | 0.13 | 96 | 1015.3 |
| 20260903053520 | 64 | 142 | 0.0 | 3.0 | 0.00 | 0.13 | 0.13 | 96 | 1015.1 |
| 20260903053017 | 64 | 240 | 0.0 | 5.0 | 0.00 | 0.13 | 0.13 | 96 | |
| 20260903052512 | 65 | 234 | 2.0 | 4.0 | 0.00 | 0.13 | 0.13 | 96 | |
| 20260903052008 | 65 | 116 | 0.0 | 3.0 | 0.00 | 0.13 | 0.13 | 96 | |
| 20260903051502 | 65 | 190 | 3.0 | 7.0 | 0.00 | 0.13 | 0.13 | 96 | |
| 20260903050958 | 65 | 249 | 1.0 | 7.0 | 0.00 | 0.13 | 0.13 | 96 | |
| 20260903050456 | 65 | 150 | 2.0 | 4.0 | 0.02 | 0.13 | 0.13 | 96 | |
| 20260903045951 | 65 | 243 | 1.0 | 6.0 | 0.02 | 0.13 | 0.13 | 96 | |
| 20260903045447 | 65 | 220 | 0.0 | 5.0 | 0.02 | 0.13 | 0.13 | 96 | |
| 20260903044943 | 65 | 304 | 2.0 | 7.0 | 0.07 | 0.13 | 0.13 | 96 | |
| 20260903044439 | 65 | 212 | 3.0 | 7.0 | 0.14 | 0.12 | 0.12 | 96 | |
| 20260903043935 | 65 | 247 | 3.0 | 6.0 | 0.14 | 0.12 | 0.12 | 96 | |
| 20260903043430 | 65 | 89 | 0.0 | 5.0 | 0.14 | 0.11 | 0.11 | 96 | |
| 20260903042928 | 65 | 205 | 3.0 | 6.0 | 0.17 | 0.09 | 0.09 | 96 | |
| 20260903042424 | 65 | 229 | 1.0 | 8.0 | 0.24 | 0.08 | 0.08 | 96 | |
| 20260903041920 | 65 | 265 | 0.0 | 5.0 | 0.24 | 0.06 | 0.06 | 96 | |
| 20260903041416 | 65 | 174 | 3.0 | 5.0 | 0.19 | 0.04 | 0.04 | 96 | |
| 20260903040912 | 65 | 169 | 2.0 | 5.0 | 0.12 | 0.02 | 0.02 | 96 | |
| 20260903040411 | 66 | 272 | 1.0 | 5.0 | 0.17 | 0.00 | 0.00 | 96 | |
| 20260903035907 | 66 | 175 | 2.0 | 6.0 | 0.26 | 0.91 | 0.91 | 96 | |
| 20260903035402 | 66 | 290 | 2.0 | 8.0 | 0.17 | 0.89 | 0.89 | 96 | |
| 20260903034857 | 66 | 288 | 4.0 | 14.0 | 0.07 | 0.87 | 0.87 | 96 | |
| 20260903034352 | 66 | 265 | 4.0 | 10.0 | 0.02 | 0.86 | 0.86 | 96 | |
| 20260903033847 | 66 | 258 | 1.0 | 3.0 | 0.05 | 0.86 | 0.86 | 96 | |
| 20260903033342 | 66 | 208 | 2.0 | 3.0 | 0.09 | 0.85 | 0.85 | 96 | |
| 20260903032842 | 67 | 168 | 3.0 | 5.0 | 0.12 | 0.85 | 0.85 | 96 | |
| 20260903032338 | 67 | 214 | 1.0 | 3.0 | 0.14 | 0.83 | 0.83 | 96 | |
| 20260903031828 | 67 | 224 | 3.0 | 5.0 | 0.17 | 0.83 | 0.83 | 96 | |
| 20260903031327 | 67 | 225 | 2.0 | 7.0 | 0.14 | 0.81 | 0.81 | 96 | |
| 20260903030823 | 67 | 199 | 3.0 | 5.0 | 0.14 | 0.80 | 0.80 | 96 |